Year,Month,Day,Hour,Minute,Value (Times are PST for windgust in km/hr)
2021,01,12,00,00,19.30
2021,01,12,00,01,14.50
2021,01,12,00,02,12.90
2021,01,12,00,03,11.30
2021,01,12,00,04,11.30
2021,01,12,00,05,12.90
2021,01,12,00,06,9.60
2021,01,12,00,07,11.30
2021,01,12,00,08,12.90
2021,01,12,00,09,9.60
2021,01,12,00,10,14.50
2021,01,12,00,11,14.50
2021,01,12,00,12,12.90
2021,01,12,00,13,8.10
2021,01,12,00,14,12.90
2021,01,12,00,15,11.30
2021,01,12,00,16,4.80
2021,01,12,00,17,11.30
2021,01,12,00,18,14.50
2021,01,12,00,19,14.50
2021,01,12,00,20,17.70
2021,01,12,00,21,14.50
2021,01,12,00,22,9.60
2021,01,12,00,23,9.60
2021,01,12,00,24,12.90
2021,01,12,00,25,14.50
2021,01,12,00,26,11.30
2021,01,12,00,27,9.60
2021,01,12,00,28,11.30
2021,01,12,00,29,6.40
2021,01,12,00,30,9.60
2021,01,12,00,31,14.50
2021,01,12,00,32,16.10
2021,01,12,00,33,19.30
2021,01,12,00,34,17.70
2021,01,12,00,35,11.30
2021,01,12,00,36,6.40
2021,01,12,00,37,6.40
2021,01,12,00,38,8.10
2021,01,12,00,39,8.10
2021,01,12,00,40,8.10
2021,01,12,00,41,6.40
2021,01,12,00,42,12.90
2021,01,12,00,43,12.90
2021,01,12,00,44,9.60
2021,01,12,00,45,6.40
2021,01,12,00,46,11.30
2021,01,12,00,47,11.30
2021,01,12,00,48,12.90
2021,01,12,00,49,9.60
2021,01,12,00,50,4.80
2021,01,12,00,51,6.40
2021,01,12,00,52,9.60
2021,01,12,00,53,11.30
2021,01,12,00,54,8.10
2021,01,12,00,55,4.80
2021,01,12,00,56,4.80
2021,01,12,00,57,8.10
2021,01,12,00,58,6.40
2021,01,12,00,59,6.40
2021,01,12,01,00,4.80
2021,01,12,01,01,12.90
2021,01,12,01,02,16.10
2021,01,12,01,03,14.50
2021,01,12,01,04,12.90
2021,01,12,01,05,12.90
2021,01,12,01,06,8.10
2021,01,12,01,07,9.60
2021,01,12,01,08,9.60
2021,01,12,01,09,14.50
2021,01,12,01,10,12.90
2021,01,12,01,11,9.60
2021,01,12,01,12,8.10
2021,01,12,01,13,9.60
2021,01,12,01,14,12.90
2021,01,12,01,15,12.90
2021,01,12,01,16,16.10
2021,01,12,01,17,17.70
2021,01,12,01,18,14.50
2021,01,12,01,19,6.40
2021,01,12,01,20,12.90
2021,01,12,01,21,14.50
2021,01,12,01,22,8.10
2021,01,12,01,23,12.90
2021,01,12,01,24,17.70
2021,01,12,01,25,19.30
2021,01,12,01,26,14.50
2021,01,12,01,27,19.30
2021,01,12,01,28,12.90
2021,01,12,01,29,16.10
2021,01,12,01,30,11.30
2021,01,12,01,31,17.70
2021,01,12,01,32,19.30
2021,01,12,01,33,14.50
2021,01,12,01,34,19.30
2021,01,12,01,35,20.90
2021,01,12,01,36,19.30
2021,01,12,01,37,17.70
2021,01,12,01,38,9.60
2021,01,12,01,39,9.60
2021,01,12,01,40,16.10
2021,01,12,01,41,14.50
2021,01,12,01,42,20.90
2021,01,12,01,43,14.50
2021,01,12,01,44,12.90
2021,01,12,01,45,17.70
2021,01,12,01,46,12.90
2021,01,12,01,47,16.10
2021,01,12,01,48,16.10
2021,01,12,01,49,11.30
2021,01,12,01,50,14.50
2021,01,12,01,51,8.10
2021,01,12,01,52,12.90
2021,01,12,01,53,12.90
2021,01,12,01,54,9.60
2021,01,12,01,55,14.50
2021,01,12,01,56,11.30
2021,01,12,01,57,9.60
2021,01,12,01,58,12.90
2021,01,12,01,59,16.10
2021,01,12,02,00,16.10
2021,01,12,02,01,12.90
2021,01,12,02,02,14.50
2021,01,12,02,03,12.90
2021,01,12,02,04,14.50
2021,01,12,02,05,14.50
2021,01,12,02,06,11.30
2021,01,12,02,07,14.50
2021,01,12,02,08,16.10
2021,01,12,02,09,22.50
2021,01,12,02,10,19.30
2021,01,12,02,11,19.30
2021,01,12,02,12,22.50
2021,01,12,02,13,17.70
2021,01,12,02,14,20.90
2021,01,12,02,15,19.30
2021,01,12,02,16,17.70
2021,01,12,02,17,19.30
2021,01,12,02,18,19.30
2021,01,12,02,19,16.10
2021,01,12,02,20,17.70
2021,01,12,02,21,19.30
2021,01,12,02,22,19.30
2021,01,12,02,23,17.70
2021,01,12,02,24,17.70
2021,01,12,02,25,17.70
2021,01,12,02,26,19.30
2021,01,12,02,27,19.30
2021,01,12,02,28,16.10
2021,01,12,02,29,19.30
2021,01,12,02,30,19.30
2021,01,12,02,31,16.10
2021,01,12,02,32,16.10
2021,01,12,02,33,12.90
2021,01,12,02,34,11.30
2021,01,12,02,35,12.90
2021,01,12,02,36,20.90
2021,01,12,02,37,20.90
2021,01,12,02,38,12.90
2021,01,12,02,39,11.30
2021,01,12,02,40,16.10
2021,01,12,02,41,22.50
2021,01,12,02,42,16.10
2021,01,12,02,43,20.90
2021,01,12,02,44,24.20
2021,01,12,02,45,19.30
2021,01,12,02,46,14.50
2021,01,12,02,47,8.10
2021,01,12,02,48,14.50
2021,01,12,02,49,11.30
2021,01,12,02,50,14.50
2021,01,12,02,51,11.30
2021,01,12,02,52,14.50
2021,01,12,02,53,12.90
2021,01,12,02,54,20.90
2021,01,12,02,55,19.30
2021,01,12,02,56,14.50
2021,01,12,02,57,12.90
2021,01,12,02,58,17.70
2021,01,12,02,59,20.90
2021,01,12,03,00,19.30
2021,01,12,03,01,17.70
2021,01,12,03,02,19.30
2021,01,12,03,03,19.30
2021,01,12,03,04,16.10
2021,01,12,03,05,16.10
2021,01,12,03,06,19.30
2021,01,12,03,07,17.70
2021,01,12,03,08,19.30
2021,01,12,03,09,19.30
2021,01,12,03,10,17.70
2021,01,12,03,11,17.70
2021,01,12,03,12,14.50
2021,01,12,03,13,16.10
2021,01,12,03,14,14.50
2021,01,12,03,15,14.50
2021,01,12,03,16,16.10
2021,01,12,03,17,14.50
2021,01,12,03,18,12.90
2021,01,12,03,19,12.90
2021,01,12,03,20,12.90
2021,01,12,03,21,11.30
2021,01,12,03,22,9.60
2021,01,12,03,23,9.60
2021,01,12,03,24,8.10
2021,01,12,03,25,6.40
2021,01,12,03,26,6.40
2021,01,12,03,27,8.10
2021,01,12,03,28,8.10
2021,01,12,03,29,6.40
2021,01,12,03,30,4.80
2021,01,12,03,31,4.80
2021,01,12,03,32,6.40
2021,01,12,03,33,6.40
2021,01,12,03,34,3.20
2021,01,12,03,44,4.80
2021,01,12,03,45,6.40
2021,01,12,03,46,6.40
2021,01,12,03,47,8.10
2021,01,12,03,48,8.10
2021,01,12,03,49,4.80
2021,01,12,03,50,4.80
2021,01,12,03,51,3.20
2021,01,12,03,52,6.40
2021,01,12,03,53,6.40
2021,01,12,03,54,6.40
2021,01,12,03,55,6.40
2021,01,12,03,56,6.40
2021,01,12,03,57,4.80
2021,01,12,03,58,4.80
2021,01,12,03,59,1.60
2021,01,12,04,00,4.80
2021,01,12,04,01,6.40
2021,01,12,04,02,4.80
2021,01,12,04,03,4.80
2021,01,12,04,04,6.40
2021,01,12,04,05,6.40
2021,01,12,04,06,6.40
2021,01,12,04,07,8.10
2021,01,12,04,08,8.10
2021,01,12,04,09,8.10
2021,01,12,04,10,11.30
2021,01,12,04,11,9.60
2021,01,12,04,12,9.60
2021,01,12,04,13,8.10
2021,01,12,04,14,8.10
2021,01,12,04,15,9.60
2021,01,12,04,16,9.60
2021,01,12,04,17,11.30
2021,01,12,04,18,9.60
2021,01,12,04,19,12.90
2021,01,12,04,20,12.90
2021,01,12,04,21,14.50
2021,01,12,04,22,12.90
2021,01,12,04,23,14.50
2021,01,12,04,24,12.90
2021,01,12,04,25,14.50
2021,01,12,04,26,12.90
2021,01,12,04,27,14.50
2021,01,12,04,28,14.50
2021,01,12,04,29,14.50
2021,01,12,04,30,14.50
2021,01,12,04,31,12.90
2021,01,12,04,32,12.90
2021,01,12,04,33,14.50
2021,01,12,04,34,16.10
2021,01,12,04,35,16.10
2021,01,12,04,36,16.10
2021,01,12,04,37,14.50
2021,01,12,04,38,12.90
2021,01,12,04,39,8.10
2021,01,12,04,40,8.10
2021,01,12,04,41,9.60
2021,01,12,04,42,12.90
2021,01,12,04,43,9.60
2021,01,12,04,44,12.90
2021,01,12,04,45,12.90
2021,01,12,04,46,8.10
2021,01,12,04,47,8.10
2021,01,12,04,48,8.10
2021,01,12,04,49,9.60
2021,01,12,04,50,9.60
2021,01,12,04,51,9.60
2021,01,12,04,52,9.60
2021,01,12,04,53,9.60
2021,01,12,04,54,6.40
2021,01,12,04,55,6.40
2021,01,12,04,56,6.40
2021,01,12,04,57,4.80
2021,01,12,04,58,4.80
2021,01,12,04,59,6.40
2021,01,12,05,00,8.10
2021,01,12,05,01,8.10
2021,01,12,05,02,8.10
2021,01,12,05,03,8.10
2021,01,12,05,04,8.10
2021,01,12,05,05,8.10
2021,01,12,05,06,6.40
2021,01,12,05,07,8.10
2021,01,12,05,08,6.40
2021,01,12,05,09,8.10
2021,01,12,05,10,8.10
2021,01,12,05,11,8.10
2021,01,12,05,12,6.40
2021,01,12,05,13,6.40
2021,01,12,05,14,6.40
2021,01,12,05,15,8.10
2021,01,12,05,16,6.40
2021,01,12,05,17,8.10
2021,01,12,05,18,6.40
2021,01,12,05,19,8.10
2021,01,12,05,20,8.10
2021,01,12,05,21,11.30
2021,01,12,05,22,11.30
2021,01,12,05,23,11.30
2021,01,12,05,24,8.10
2021,01,12,05,25,6.40
2021,01,12,05,26,8.10
2021,01,12,05,27,8.10
2021,01,12,05,28,6.40
2021,01,12,05,29,6.40
2021,01,12,05,30,6.40
2021,01,12,05,31,6.40
2021,01,12,05,32,4.80
2021,01,12,05,33,4.80
2021,01,12,05,34,6.40
2021,01,12,05,35,6.40
2021,01,12,05,36,6.40
2021,01,12,05,37,6.40
2021,01,12,05,38,4.80
2021,01,12,05,39,6.40
2021,01,12,05,40,6.40
2021,01,12,05,41,6.40
2021,01,12,05,42,6.40
2021,01,12,05,43,6.40
2021,01,12,05,44,6.40
2021,01,12,05,45,6.40
2021,01,12,05,46,4.80
2021,01,12,05,47,4.80
2021,01,12,05,48,3.20
2021,01,12,05,49,4.80
2021,01,12,05,50,3.20
2021,01,12,05,51,3.20
2021,01,12,05,52,3.20
2021,01,12,05,53,3.20
2021,01,12,05,54,3.20
2021,01,12,05,55,1.60
2021,01,12,05,59,1.60
2021,01,12,06,05,1.60
2021,01,12,06,06,1.60
2021,01,12,06,07,1.60
2021,01,12,06,09,1.60
2021,01,12,06,10,1.60
2021,01,12,06,16,1.60
2021,01,12,06,17,1.60
2021,01,12,06,20,1.60
2021,01,12,06,23,1.60
2021,01,12,06,24,3.20
2021,01,12,06,25,3.20
2021,01,12,06,26,3.20
2021,01,12,06,27,3.20
2021,01,12,06,28,3.20
2021,01,12,06,29,3.20
2021,01,12,06,30,4.80
2021,01,12,06,31,4.80
2021,01,12,06,32,4.80
2021,01,12,06,33,6.40
2021,01,12,06,34,8.10
2021,01,12,06,35,8.10
2021,01,12,06,36,8.10
2021,01,12,06,37,8.10
2021,01,12,06,38,6.40
2021,01,12,06,39,4.80
2021,01,12,06,40,6.40
2021,01,12,06,41,6.40
2021,01,12,06,42,6.40
2021,01,12,06,43,8.10
2021,01,12,06,44,8.10
2021,01,12,06,45,9.60
2021,01,12,06,46,8.10
2021,01,12,06,47,6.40
2021,01,12,06,48,8.10
2021,01,12,06,49,8.10
2021,01,12,06,50,6.40
2021,01,12,06,51,9.60
2021,01,12,06,52,8.10
2021,01,12,06,53,11.30
2021,01,12,06,54,11.30
2021,01,12,06,55,8.10
2021,01,12,06,56,8.10
2021,01,12,06,57,8.10
2021,01,12,06,58,9.60
2021,01,12,06,59,6.40
2021,01,12,07,00,6.40
2021,01,12,07,01,8.10
2021,01,12,07,02,6.40
2021,01,12,07,03,8.10
2021,01,12,07,04,6.40
2021,01,12,07,05,8.10
2021,01,12,07,06,6.40
2021,01,12,07,07,4.80
2021,01,12,07,08,4.80
2021,01,12,07,09,6.40
2021,01,12,07,10,6.40
2021,01,12,07,11,6.40
2021,01,12,07,12,6.40
2021,01,12,07,13,4.80
2021,01,12,07,14,6.40
2021,01,12,07,15,6.40
2021,01,12,07,16,6.40
2021,01,12,07,17,6.40
2021,01,12,07,18,6.40
2021,01,12,07,19,6.40
2021,01,12,07,20,8.10
2021,01,12,07,21,8.10
2021,01,12,07,22,8.10
2021,01,12,07,23,8.10
2021,01,12,07,24,8.10
2021,01,12,07,25,8.10
2021,01,12,07,26,8.10
2021,01,12,07,27,8.10
2021,01,12,07,28,8.10
2021,01,12,07,29,8.10
2021,01,12,07,30,6.40
2021,01,12,07,31,6.40
2021,01,12,07,32,8.10
2021,01,12,07,33,8.10
2021,01,12,07,34,9.60
2021,01,12,07,35,9.60
2021,01,12,07,36,9.60
2021,01,12,07,37,9.60
2021,01,12,07,38,11.30
2021,01,12,07,39,9.60
2021,01,12,07,40,11.30
2021,01,12,07,41,11.30
2021,01,12,07,42,11.30
2021,01,12,07,43,8.10
2021,01,12,07,44,9.60
2021,01,12,07,45,8.10
2021,01,12,07,46,4.80
2021,01,12,07,47,4.80
2021,01,12,07,48,6.40
2021,01,12,07,49,6.40
2021,01,12,07,50,6.40
2021,01,12,07,51,6.40
2021,01,12,07,52,8.10
2021,01,12,07,53,6.40
2021,01,12,07,54,6.40
2021,01,12,07,55,8.10
2021,01,12,07,56,8.10
2021,01,12,07,57,6.40
2021,01,12,07,58,4.80
2021,01,12,07,59,4.80
2021,01,12,08,00,6.40
2021,01,12,08,01,6.40
2021,01,12,08,02,8.10
2021,01,12,08,03,12.90
2021,01,12,08,04,9.60
2021,01,12,08,05,8.10
2021,01,12,08,06,9.60
2021,01,12,08,07,9.60
2021,01,12,08,08,9.60
2021,01,12,08,09,8.10
2021,01,12,08,10,8.10
2021,01,12,08,11,8.10
2021,01,12,08,12,6.40
2021,01,12,08,13,8.10
2021,01,12,08,14,8.10
2021,01,12,08,15,8.10
2021,01,12,08,16,8.10
2021,01,12,08,17,8.10
2021,01,12,08,18,8.10
2021,01,12,08,19,9.60
2021,01,12,08,20,9.60
2021,01,12,08,21,9.60
2021,01,12,08,22,9.60
2021,01,12,08,23,11.30
2021,01,12,08,24,11.30
2021,01,12,08,25,9.60
2021,01,12,08,26,12.90
2021,01,12,08,27,11.30
2021,01,12,08,28,14.50
2021,01,12,08,29,9.60
2021,01,12,08,30,8.10
2021,01,12,08,31,9.60
2021,01,12,08,32,9.60
2021,01,12,08,33,8.10
2021,01,12,08,34,8.10
2021,01,12,08,35,9.60
2021,01,12,08,36,8.10
2021,01,12,08,37,8.10
2021,01,12,08,38,8.10
2021,01,12,08,39,8.10
2021,01,12,08,40,9.60
2021,01,12,08,41,8.10
2021,01,12,08,42,8.10
2021,01,12,08,43,8.10
2021,01,12,08,44,9.60
2021,01,12,08,45,9.60
2021,01,12,08,46,4.80
2021,01,12,08,47,12.90
2021,01,12,08,48,12.90
2021,01,12,08,49,11.30
2021,01,12,08,50,9.60
2021,01,12,08,51,9.60
2021,01,12,08,52,11.30
2021,01,12,08,53,11.30
2021,01,12,08,54,11.30
2021,01,12,08,55,9.60
2021,01,12,08,56,9.60
2021,01,12,08,57,9.60
2021,01,12,08,58,9.60
2021,01,12,08,59,9.60
2021,01,12,09,00,9.60
2021,01,12,09,01,9.60
2021,01,12,09,02,9.60
2021,01,12,09,03,9.60
2021,01,12,09,04,11.30
2021,01,12,09,05,11.30
2021,01,12,09,06,9.60
2021,01,12,09,07,11.30
2021,01,12,09,08,11.30
2021,01,12,09,09,12.90
2021,01,12,09,10,12.90
2021,01,12,09,11,12.90
2021,01,12,09,12,14.50
2021,01,12,09,13,11.30
2021,01,12,09,14,12.90
2021,01,12,09,15,11.30
2021,01,12,09,16,12.90
2021,01,12,09,17,14.50
2021,01,12,09,18,14.50
2021,01,12,09,19,12.90
2021,01,12,09,20,12.90
2021,01,12,09,21,12.90
2021,01,12,09,22,11.30
2021,01,12,09,23,12.90
2021,01,12,09,24,12.90
2021,01,12,09,25,14.50
2021,01,12,09,26,16.10
2021,01,12,09,27,14.50
2021,01,12,09,28,14.50
2021,01,12,09,29,17.70
2021,01,12,09,30,14.50
2021,01,12,09,31,11.30
2021,01,12,09,32,14.50
2021,01,12,09,33,14.50
2021,01,12,09,34,14.50
2021,01,12,09,35,14.50
2021,01,12,09,36,12.90
2021,01,12,09,37,14.50
2021,01,12,09,38,17.70
2021,01,12,09,39,11.30
2021,01,12,09,40,9.60
2021,01,12,09,41,9.60
2021,01,12,09,42,11.30
2021,01,12,09,43,14.50
2021,01,12,09,44,14.50
2021,01,12,09,45,11.30
2021,01,12,09,46,12.90
2021,01,12,09,47,11.30
2021,01,12,09,48,14.50
2021,01,12,09,49,12.90
2021,01,12,09,50,12.90
2021,01,12,09,51,12.90
2021,01,12,09,52,14.50
2021,01,12,09,53,16.10
2021,01,12,09,54,14.50
2021,01,12,09,55,12.90
2021,01,12,09,56,14.50
2021,01,12,09,57,14.50
2021,01,12,09,58,16.10
2021,01,12,09,59,14.50
2021,01,12,10,00,12.90
2021,01,12,10,01,16.10
2021,01,12,10,02,14.50
2021,01,12,10,03,16.10
2021,01,12,10,04,17.70
2021,01,12,10,05,14.50
2021,01,12,10,06,14.50
2021,01,12,10,07,14.50
2021,01,12,10,08,14.50
2021,01,12,10,09,14.50
2021,01,12,10,10,14.50
2021,01,12,10,11,12.90
2021,01,12,10,12,14.50
2021,01,12,10,13,14.50
2021,01,12,10,14,14.50
2021,01,12,10,15,14.50
2021,01,12,10,16,14.50
2021,01,12,10,17,14.50
2021,01,12,10,18,12.90
2021,01,12,10,19,12.90
2021,01,12,10,20,11.30
2021,01,12,10,21,9.60
2021,01,12,10,22,12.90
2021,01,12,10,23,16.10
2021,01,12,10,24,12.90
2021,01,12,10,25,12.90
2021,01,12,10,26,14.50
2021,01,12,10,27,14.50
2021,01,12,10,28,14.50
2021,01,12,10,29,12.90
2021,01,12,10,30,12.90
2021,01,12,10,31,11.30
2021,01,12,10,32,11.30
2021,01,12,10,33,11.30
2021,01,12,10,34,12.90
2021,01,12,10,35,11.30
2021,01,12,10,36,11.30
2021,01,12,10,37,12.90
2021,01,12,10,38,11.30
2021,01,12,10,39,12.90
2021,01,12,10,40,16.10
2021,01,12,10,41,9.60
2021,01,12,10,42,11.30
2021,01,12,10,43,11.30
2021,01,12,10,44,11.30
2021,01,12,10,45,11.30
2021,01,12,10,46,12.90
2021,01,12,10,47,11.30
2021,01,12,10,48,11.30
2021,01,12,10,49,11.30
2021,01,12,10,50,8.10
2021,01,12,10,51,9.60
2021,01,12,10,52,11.30
2021,01,12,10,53,9.60
2021,01,12,10,54,11.30
2021,01,12,10,55,11.30
2021,01,12,10,56,12.90
2021,01,12,10,57,14.50
2021,01,12,10,58,14.50
2021,01,12,10,59,14.50
2021,01,12,11,00,14.50
2021,01,12,11,01,16.10
2021,01,12,11,02,12.90
2021,01,12,11,03,17.70
2021,01,12,11,04,17.70
2021,01,12,11,05,16.10
2021,01,12,11,06,17.70
2021,01,12,11,07,17.70
2021,01,12,11,08,14.50
2021,01,12,11,09,14.50
2021,01,12,11,10,14.50
2021,01,12,11,11,14.50
2021,01,12,11,12,12.90
2021,01,12,11,13,14.50
2021,01,12,11,14,14.50
2021,01,12,11,15,17.70
2021,01,12,11,16,14.50
2021,01,12,11,17,16.10
2021,01,12,11,18,16.10
2021,01,12,11,19,14.50
2021,01,12,11,20,16.10
2021,01,12,11,21,12.90
2021,01,12,11,22,11.30
2021,01,12,11,23,12.90
2021,01,12,11,24,11.30
2021,01,12,11,25,12.90
2021,01,12,11,26,12.90
2021,01,12,11,27,8.10
2021,01,12,11,28,9.60
2021,01,12,11,29,11.30
2021,01,12,11,30,9.60
2021,01,12,11,31,11.30
2021,01,12,11,32,12.90
2021,01,12,11,33,12.90
2021,01,12,11,34,11.30
2021,01,12,11,35,12.90
2021,01,12,11,36,11.30
2021,01,12,11,37,12.90
2021,01,12,11,38,14.50
2021,01,12,11,39,12.90
2021,01,12,11,40,12.90
2021,01,12,11,41,14.50
2021,01,12,11,42,14.50
2021,01,12,11,43,16.10
2021,01,12,11,44,14.50
2021,01,12,11,45,14.50
2021,01,12,11,46,14.50
2021,01,12,11,47,16.10
2021,01,12,11,48,16.10
2021,01,12,11,49,14.50
2021,01,12,11,50,14.50
2021,01,12,11,51,17.70
2021,01,12,11,52,16.10
2021,01,12,11,53,16.10
2021,01,12,11,54,14.50
2021,01,12,11,55,17.70
2021,01,12,11,56,16.10
2021,01,12,11,57,14.50
2021,01,12,11,58,16.10
2021,01,12,11,59,12.90
2021,01,12,12,00,14.50
2021,01,12,12,01,14.50
2021,01,12,12,02,12.90
2021,01,12,12,03,11.30
2021,01,12,12,04,14.50
2021,01,12,12,05,12.90
2021,01,12,12,06,12.90
2021,01,12,12,07,14.50
2021,01,12,12,08,16.10
2021,01,12,12,09,14.50
2021,01,12,12,10,12.90
2021,01,12,12,11,12.90
2021,01,12,12,12,14.50
2021,01,12,12,13,14.50
2021,01,12,12,14,12.90
2021,01,12,12,15,12.90
2021,01,12,12,16,14.50
2021,01,12,12,17,12.90
2021,01,12,12,18,14.50
2021,01,12,12,19,12.90
2021,01,12,12,20,12.90
2021,01,12,12,21,12.90
2021,01,12,12,22,9.60
2021,01,12,12,23,9.60
2021,01,12,12,24,11.30
2021,01,12,12,25,11.30
2021,01,12,12,26,11.30
2021,01,12,12,27,12.90
2021,01,12,12,28,9.60
2021,01,12,12,29,12.90
2021,01,12,12,30,11.30
2021,01,12,12,31,14.50
2021,01,12,12,32,14.50
2021,01,12,12,33,14.50
2021,01,12,12,34,14.50
2021,01,12,12,35,12.90
2021,01,12,12,36,11.30
2021,01,12,12,37,14.50
2021,01,12,12,38,11.30
2021,01,12,12,39,14.50
2021,01,12,12,40,14.50
2021,01,12,12,41,11.30
2021,01,12,12,42,14.50
2021,01,12,12,43,9.60
2021,01,12,12,44,9.60
2021,01,12,12,45,11.30
2021,01,12,12,46,11.30
2021,01,12,12,47,12.90
2021,01,12,12,48,8.10
2021,01,12,12,49,9.60
2021,01,12,12,50,11.30
2021,01,12,12,51,11.30
2021,01,12,12,52,9.60
2021,01,12,12,53,11.30
2021,01,12,12,54,11.30
2021,01,12,12,55,11.30
2021,01,12,12,56,11.30
2021,01,12,12,57,11.30
2021,01,12,12,58,11.30
2021,01,12,12,59,11.30
2021,01,12,13,00,11.30
2021,01,12,13,01,11.30
2021,01,12,13,02,11.30
2021,01,12,13,03,11.30
2021,01,12,13,04,11.30
2021,01,12,13,05,11.30
2021,01,12,13,06,12.90
2021,01,12,13,07,11.30
2021,01,12,13,08,9.60
2021,01,12,13,09,9.60
2021,01,12,13,10,9.60
2021,01,12,13,11,9.60
2021,01,12,13,12,8.10
2021,01,12,13,13,11.30
2021,01,12,13,14,11.30
2021,01,12,13,15,12.90
2021,01,12,13,16,14.50
2021,01,12,13,17,8.10
2021,01,12,13,18,9.60
2021,01,12,13,19,8.10
2021,01,12,13,20,8.10
2021,01,12,13,21,8.10
2021,01,12,13,22,6.40
2021,01,12,13,23,9.60
2021,01,12,13,24,9.60
2021,01,12,13,25,11.30
2021,01,12,13,26,9.60
2021,01,12,13,27,11.30
2021,01,12,13,28,11.30
2021,01,12,13,29,11.30
2021,01,12,13,30,9.60
2021,01,12,13,31,11.30
2021,01,12,13,32,12.90
2021,01,12,13,33,11.30
2021,01,12,13,34,11.30
2021,01,12,13,35,9.60
2021,01,12,13,36,9.60
2021,01,12,13,37,8.10
2021,01,12,13,38,9.60
2021,01,12,13,39,8.10
2021,01,12,13,40,8.10
2021,01,12,13,41,6.40
2021,01,12,13,42,8.10
2021,01,12,13,43,8.10
2021,01,12,13,44,8.10
2021,01,12,13,45,9.60
2021,01,12,13,46,8.10
2021,01,12,13,47,8.10
2021,01,12,13,48,6.40
2021,01,12,13,49,8.10
2021,01,12,13,50,9.60
2021,01,12,13,51,8.10
2021,01,12,13,52,9.60
2021,01,12,13,53,6.40
2021,01,12,13,54,6.40
2021,01,12,13,55,8.10
2021,01,12,13,56,8.10
2021,01,12,13,57,8.10
2021,01,12,13,58,8.10
2021,01,12,13,59,8.10
2021,01,12,14,00,8.10
2021,01,12,14,01,8.10
2021,01,12,14,02,6.40
2021,01,12,14,03,6.40
2021,01,12,14,04,8.10
2021,01,12,14,05,8.10
2021,01,12,14,06,9.60
2021,01,12,14,07,6.40
2021,01,12,14,08,4.80
2021,01,12,14,09,6.40
2021,01,12,14,10,6.40
2021,01,12,14,11,6.40
2021,01,12,14,12,4.80
2021,01,12,14,13,4.80
2021,01,12,14,14,4.80
2021,01,12,14,15,8.10
2021,01,12,14,16,6.40
2021,01,12,14,17,6.40
2021,01,12,14,18,6.40
2021,01,12,14,19,6.40
2021,01,12,14,20,6.40
2021,01,12,14,21,6.40
2021,01,12,14,22,6.40
2021,01,12,14,23,4.80
2021,01,12,14,24,6.40
2021,01,12,14,25,8.10
2021,01,12,14,26,6.40
2021,01,12,14,27,11.30
2021,01,12,14,28,11.30
2021,01,12,14,29,12.90
2021,01,12,14,30,11.30
2021,01,12,14,31,12.90
2021,01,12,14,32,12.90
2021,01,12,14,33,12.90
2021,01,12,14,34,11.30
2021,01,12,14,35,8.10
2021,01,12,14,36,8.10
2021,01,12,14,37,4.80
2021,01,12,14,38,3.20
2021,01,12,14,39,4.80
2021,01,12,14,40,9.60
2021,01,12,14,41,4.80
2021,01,12,14,42,9.60
2021,01,12,14,43,4.80
2021,01,12,14,44,3.20
2021,01,12,14,45,3.20
2021,01,12,14,46,4.80
2021,01,12,14,47,6.40
2021,01,12,14,48,6.40
2021,01,12,14,49,6.40
2021,01,12,14,50,9.60
2021,01,12,14,51,6.40
2021,01,12,14,52,6.40
2021,01,12,14,53,3.20
2021,01,12,14,54,3.20
2021,01,12,14,55,3.20
2021,01,12,14,56,6.40
2021,01,12,14,57,8.10
2021,01,12,14,58,9.60
2021,01,12,14,59,11.30
2021,01,12,15,00,11.30
2021,01,12,15,01,11.30
2021,01,12,15,02,6.40
2021,01,12,15,03,9.60
2021,01,12,15,04,9.60
2021,01,12,15,05,9.60
2021,01,12,15,06,9.60
2021,01,12,15,07,9.60
2021,01,12,15,08,9.60
2021,01,12,15,09,9.60
2021,01,12,15,10,11.30
2021,01,12,15,11,11.30
2021,01,12,15,12,8.10
2021,01,12,15,13,6.40
2021,01,12,15,14,6.40
2021,01,12,15,15,6.40
2021,01,12,15,16,3.20
2021,01,12,15,18,6.40
2021,01,12,15,19,4.80
2021,01,12,15,20,4.80
2021,01,12,15,21,8.10
2021,01,12,15,22,11.30
2021,01,12,15,23,11.30
2021,01,12,15,24,11.30
2021,01,12,15,25,8.10
2021,01,12,15,26,8.10
2021,01,12,15,27,8.10
2021,01,12,15,28,8.10
2021,01,12,15,29,6.40
2021,01,12,15,30,6.40
2021,01,12,15,31,6.40
2021,01,12,15,32,8.10
2021,01,12,15,33,8.10
2021,01,12,15,34,8.10
2021,01,12,15,35,9.60
2021,01,12,15,36,8.10
2021,01,12,15,37,8.10
2021,01,12,15,38,8.10
2021,01,12,15,39,6.40
2021,01,12,15,40,8.10
2021,01,12,15,41,9.60
2021,01,12,15,42,9.60
2021,01,12,15,43,8.10
2021,01,12,15,44,9.60
2021,01,12,15,45,8.10
2021,01,12,15,46,8.10
2021,01,12,15,47,8.10
2021,01,12,15,48,9.60
2021,01,12,15,49,9.60
2021,01,12,15,50,8.10
2021,01,12,15,51,8.10
2021,01,12,15,52,8.10
2021,01,12,15,53,6.40
2021,01,12,15,54,8.10
2021,01,12,15,55,8.10
2021,01,12,15,56,8.10
2021,01,12,15,57,8.10
2021,01,12,15,58,9.60
2021,01,12,15,59,8.10
2021,01,12,16,00,8.10
2021,01,12,16,01,9.60
2021,01,12,16,02,8.10
2021,01,12,16,03,6.40
2021,01,12,16,04,8.10
2021,01,12,16,05,8.10
2021,01,12,16,06,6.40
2021,01,12,16,07,6.40
2021,01,12,16,08,6.40
2021,01,12,16,09,8.10
2021,01,12,16,10,6.40
2021,01,12,16,11,6.40
2021,01,12,16,12,6.40
2021,01,12,16,13,8.10
2021,01,12,16,14,6.40
2021,01,12,16,15,8.10
2021,01,12,16,16,6.40
2021,01,12,16,17,6.40
2021,01,12,16,18,6.40
2021,01,12,16,19,6.40
2021,01,12,16,20,8.10
2021,01,12,16,21,8.10
2021,01,12,16,22,6.40
2021,01,12,16,23,6.40
2021,01,12,16,24,6.40
2021,01,12,16,25,4.80
2021,01,12,16,26,4.80
2021,01,12,16,27,4.80
2021,01,12,16,28,4.80
2021,01,12,16,29,6.40
2021,01,12,16,30,4.80
2021,01,12,16,31,6.40
2021,01,12,16,32,4.80
2021,01,12,16,33,6.40
2021,01,12,16,34,6.40
2021,01,12,16,35,6.40
2021,01,12,16,36,4.80
2021,01,12,16,37,4.80
2021,01,12,16,38,4.80
2021,01,12,16,39,3.20
2021,01,12,16,40,3.20
2021,01,12,16,41,3.20
2021,01,12,16,42,3.20
2021,01,12,16,43,3.20
2021,01,12,16,44,3.20
2021,01,12,16,45,3.20
2021,01,12,16,46,3.20
2021,01,12,16,47,3.20
2021,01,12,16,48,1.60
2021,01,12,16,49,1.60
2021,01,12,16,50,1.60
2021,01,12,16,53,1.60
2021,01,12,16,54,1.60
2021,01,12,16,55,1.60
2021,01,12,17,25,6.40
2021,01,12,17,26,6.40
2021,01,12,17,27,8.10
2021,01,12,17,28,11.30
2021,01,12,17,29,9.60
2021,01,12,17,30,9.60
2021,01,12,17,31,9.60
2021,01,12,17,32,9.60
2021,01,12,17,33,12.90
2021,01,12,17,34,12.90
2021,01,12,17,35,14.50
2021,01,12,17,36,14.50
2021,01,12,17,37,12.90
2021,01,12,17,38,12.90
2021,01,12,17,39,12.90
2021,01,12,17,40,14.50
2021,01,12,17,41,14.50
2021,01,12,17,42,14.50
2021,01,12,17,43,12.90
2021,01,12,17,44,12.90
2021,01,12,17,45,14.50
2021,01,12,17,46,16.10
2021,01,12,17,47,16.10
2021,01,12,17,48,17.70
2021,01,12,17,49,17.70
2021,01,12,17,50,14.50
2021,01,12,17,51,9.60
2021,01,12,17,52,11.30
2021,01,12,17,53,12.90
2021,01,12,17,54,12.90
2021,01,12,17,55,14.50
2021,01,12,17,56,11.30
2021,01,12,17,57,16.10
2021,01,12,17,58,17.70
2021,01,12,17,59,16.10
2021,01,12,18,00,16.10
2021,01,12,18,01,16.10
2021,01,12,18,02,14.50
2021,01,12,18,03,16.10
2021,01,12,18,04,16.10
2021,01,12,18,05,12.90
2021,01,12,18,06,8.10
2021,01,12,18,07,8.10
2021,01,12,18,08,9.60
2021,01,12,18,09,6.40
2021,01,12,18,10,8.10
2021,01,12,18,11,8.10
2021,01,12,18,12,8.10
2021,01,12,18,13,12.90
2021,01,12,18,14,11.30
2021,01,12,18,15,11.30
2021,01,12,18,16,14.50
2021,01,12,18,17,14.50
2021,01,12,18,18,14.50
2021,01,12,18,19,14.50
2021,01,12,18,20,11.30
2021,01,12,18,21,9.60
2021,01,12,18,22,11.30
2021,01,12,18,23,9.60
2021,01,12,18,24,9.60
2021,01,12,18,25,8.10
2021,01,12,18,26,9.60
2021,01,12,18,27,11.30
2021,01,12,18,28,11.30
2021,01,12,18,29,14.50
2021,01,12,18,30,14.50
2021,01,12,18,31,14.50
2021,01,12,18,32,14.50
2021,01,12,18,33,16.10
2021,01,12,18,34,14.50
2021,01,12,18,35,12.90
2021,01,12,18,36,12.90
2021,01,12,18,37,14.50
2021,01,12,18,38,16.10
2021,01,12,18,39,17.70
2021,01,12,18,40,17.70
2021,01,12,18,41,17.70
2021,01,12,18,42,17.70